| time (UTC) | temp C | wind direction | speed KPH | gust KPH | rain 1hr cm | rain 24hr cm | rain mn cm | humidity % | barometer mb |
| 20260507203307 | 10 | 135 | 0.0 | 3.2 | 0.00 | 0.00 | 0.00 | 99 | 992.0 |
| 20260507201306 | 10 | 112 | 1.6 | 3.2 | 0.00 | 0.00 | 0.00 | 99 | 992.0 |
| 20260507195309 | 10 | 112 | 1.6 | 4.8 | 0.00 | 0.00 | 0.00 | 99 | 992.0 |
| 20260507193308 | 10 | 112 | 3.2 | 6.4 | 0.00 | 0.00 | 0.00 | 99 | 992.0 |
| 20260507191348 | 10 | 112 | 3.2 | 3.2 | 0.00 | 0.00 | 0.00 | 99 | 992.0 |
| 20260507191307 | 10 | 112 | 3.2 | 3.2 | 0.00 | 0.00 | 0.00 | 99 | 992.0 |
| 20260507185307 | 10 | 112 | 3.2 | 6.4 | 0.00 | 0.00 | 0.00 | 99 | 992.0 |
| 20260507183307 | 10 | 112 | 1.6 | 3.2 | 0.00 | 0.00 | 0.00 | 99 | 992.0 |
| 20260507181306 | 10 | 112 | 3.2 | 4.8 | 0.00 | 0.00 | 0.00 | 99 | 992.0 |
| 20260507175351 | 10 | 112 | 3.2 | 6.4 | 0.00 | 0.00 | 0.00 | 98 | 992.0 |
| 20260507175307 | 10 | 112 | 3.2 | 6.4 | 0.00 | 0.00 | 0.00 | 98 | 992.0 |
| 20260507173307 | 10 | 112 | 3.2 | 6.4 | 0.00 | 0.00 | 0.00 | 98 | 992.0 |
| 20260507171309 | 10 | 112 | 3.2 | 4.8 | 0.00 | 0.00 | 0.00 | 95 | 991.0 |
| 20260507165307 | 10 | 112 | 3.2 | 8.0 | 0.00 | 0.00 | 0.00 | 93 | 991.0 |
| 20260507163307 | 11 | 112 | 3.2 | 6.4 | 0.00 | 0.00 | 0.00 | 91 | 991.0 |
| 20260507161308 | 11 | 135 | 4.8 | 8.0 | 0.00 | 0.00 | 0.00 | 86 | 991.0 |
| 20260507155307 | 12 | 112 | 4.8 | 8.0 | 0.00 | 0.00 | 0.00 | 83 | 991.0 |
| 20260507153344 | 13 | 112 | 6.4 | 11.3 | 0.00 | 0.00 | 0.00 | 82 | 991.0 |
| 20260507153307 | 13 | 112 | 6.4 | 11.3 | 0.00 | 0.00 | 0.00 | 82 | 991.0 |
| 20260507151307 | 13 | 90 | 6.4 | 9.7 | 0.00 | 0.00 | 0.00 | 79 | 991.0 |
| 20260507145307 | 15 | 135 | 6.4 | 11.3 | 0.00 | 0.00 | 0.00 | 79 | 991.0 |
| 20260507143307 | 15 | 135 | 4.8 | 9.7 | 0.00 | 0.00 | 0.00 | 78 | 992.0 |
| 20260507141307 | 15 | 135 | 6.4 | 16.1 | 0.00 | 0.00 | 0.00 | 75 | 991.0 |
| 20260507135314 | 15 | 135 | 4.8 | 9.7 | 0.00 | 0.00 | 0.00 | 73 | 992.0 |
| 20260507135307 | 15 | 135 | 4.8 | 9.7 | 0.00 | 0.00 | 0.00 | 73 | 992.0 |
| 20260507133308 | 15 | 112 | 6.4 | 12.9 | 0.00 | 0.00 | 0.00 | 74 | 992.0 |
| 20260507131426 | 15 | 112 | 6.4 | 9.7 | 0.00 | 0.00 | 0.00 | 71 | 992.0 |
| 20260507131309 | 15 | 112 | 6.4 | 9.7 | 0.00 | 0.00 | 0.00 | 71 | 992.0 |
| 20260507125308 | 16 | 112 | 6.4 | 12.9 | 0.00 | 0.00 | 0.00 | 71 | 992.0 |
| 20260507123307 | 16 | 112 | 6.4 | 8.0 | 0.00 | 0.00 | 0.00 | 72 | 992.0 |
| 20260507121306 | 16 | 112 | 6.4 | 12.9 | 0.00 | 0.00 | 0.00 | 68 | 991.0 |
| 20260507115307 | 16 | 112 | 9.7 | 16.1 | 0.00 | 0.00 | 0.00 | 68 | 991.0 |
| 20260507113307 | 16 | 112 | 8.0 | 14.5 | 0.00 | 0.00 | 0.00 | 69 | 991.0 |
| 20260507111308 | 17 | 112 | 8.0 | 12.9 | 0.00 | 0.00 | 0.00 | 69 | 992.0 |
| 20260507105307 | 16 | 112 | 6.4 | 12.9 | 0.00 | 0.00 | 0.00 | 69 | 992.0 |
| 20260507103308 | 15 | 112 | 4.8 | 9.7 | 0.00 | 0.00 | 0.00 | 72 | 992.0 |
| 20260507101307 | 17 | 135 | 9.7 | 14.5 | 0.00 | 0.00 | 0.00 | 68 | 992.0 |
| 20260507095308 | 17 | 135 | 4.8 | 8.0 | 0.00 | 0.00 | 0.00 | 68 | 991.0 |
| 20260507093307 | 17 | 135 | 3.2 | 11.3 | 0.00 | 0.00 | 0.00 | 67 | 992.0 |
| 20260507091307 | 16 | 112 | 6.4 | 9.7 | 0.00 | 0.00 | 0.00 | 71 | 992.0 |
| 20260507085307 | 15 | 112 | 6.4 | 11.3 | 0.00 | 0.00 | 0.00 | 73 | 992.0 |
| 20260507083307 | 16 | 112 | 4.8 | 6.4 | 0.00 | 0.00 | 0.00 | 72 | 992.0 |
| 20260507081307 | 16 | 135 | 3.2 | 6.4 | 0.00 | 0.00 | 0.00 | 70 | 992.0 |
| 20260507075307 | 16 | 135 | 4.8 | 9.7 | 0.00 | 0.00 | 0.00 | 72 | 992.0 |
| 20260507073307 | 16 | 112 | 3.2 | 6.4 | 0.00 | 0.00 | 0.00 | 70 | 992.0 |
| 20260507071306 | 16 | 112 | 3.2 | 8.0 | 0.00 | 0.00 | 0.00 | 75 | 992.0 |
| 20260507065307 | 15 | 135 | 3.2 | 4.8 | 0.00 | 0.00 | 0.00 | 72 | 991.0 |
| 20260507063307 | 15 | 135 | 1.6 | 8.0 | 0.00 | 0.00 | 0.00 | 76 | 992.0 |
| 20260507061308 | 15 | 157 | 1.6 | 4.8 | 0.00 | 0.00 | 0.00 | 83 | 992.0 |
| 20260507055308 | 12 | 135 | 1.6 | 4.8 | 0.00 | 0.00 | 0.00 | 87 | 992.0 |
| 20260507053309 | 11 | 157 | 1.6 | 3.2 | 0.00 | 0.00 | 0.00 | 90 | 993.0 |
| 20260507051339 | 10 | 135 | 1.6 | 4.8 | 0.00 | 0.00 | 0.00 | 99 | 992.0 |
| 20260507051307 | 10 | 135 | 1.6 | 4.8 | 0.00 | 0.00 | 0.00 | 99 | 992.0 |
| 20260507045307 | 10 | 135 | 1.6 | 3.2 | 0.00 | 0.00 | 0.00 | 99 | 992.0 |
| 20260507043307 | 10 | 135 | 1.6 | 3.2 | 0.00 | 0.00 | 0.00 | 99 | 992.0 |
| 20260507041340 | 10 | 112 | 3.2 | 6.4 | 0.00 | 0.00 | 0.00 | 99 | 992.0 |
| 20260507041307 | 10 | 112 | 3.2 | 6.4 | 0.00 | 0.00 | 0.00 | 99 | 992.0 |
| 20260507035308 | 8 | 135 | 1.6 | 4.8 | 0.00 | 0.00 | 0.00 | 99 | 991.0 |
| 20260507033307 | 8 | 135 | 0.0 | 3.2 | 0.00 | 0.00 | 0.00 | 99 | 991.0 |
| 20260507031347 | 8 | 157 | 0.0 | 3.2 | 0.00 | 0.00 | 0.00 | 99 | 991.0 |
| 20260507031307 | 8 | 157 | 0.0 | 3.2 | 0.00 | 0.00 | 0.00 | 99 | 991.0 |
| 20260507025307 | 8 | 135 | 0.0 | 3.2 | 0.00 | 0.00 | 0.00 | 99 | 991.0 |
| 20260507023315 | -17 | 135 | 0.0 | 1.6 | 0.00 | 0.00 | 0.00 | 991.0 | |
| 20260507023306 | 8 | 135 | 0.0 | 1.6 | 0.00 | 0.00 | 0.00 | 99 | 991.0 |
| 20260507021307 | 8 | 112 | 1.6 | 3.2 | 0.00 | 0.00 | 0.00 | 99 | 991.0 |
| 20260507015308 | 8 | 135 | 1.6 | 3.2 | 0.00 | 0.00 | 0.00 | 99 | 991.0 |
| 20260507013308 | 8 | 112 | 0.0 | 3.2 | 0.00 | 0.00 | 0.00 | 99 | 991.0 |
| 20260507011306 | 8 | 112 | 0.0 | 1.6 | 0.00 | 0.00 | 0.00 | 99 | 991.0 |
| 20260507005307 | 8 | 112 | 1.6 | 3.2 | 0.00 | 0.00 | 0.00 | 99 | 991.0 |
| 20260507003308 | 8 | 112 | 3.2 | 4.8 | 0.00 | 0.00 | 0.00 | 99 | 991.0 |
| 20260507001309 | 8 | 112 | 3.2 | 4.8 | 0.00 | 0.00 | 0.00 | 99 | 991.0 |
| 20260506235307 | 8 | 135 | 1.6 | 3.2 | 0.00 | 0.00 | 0.00 | 99 | 991.0 |
| 20260506233307 | 8 | 135 | 1.6 | 3.2 | 0.00 | 0.00 | 0.00 | 99 | 991.0 |
| 20260506231307 | 8 | 112 | 1.6 | 3.2 | 0.00 | 0.00 | 0.00 | 99 | 991.0 |
| 20260506225307 | 8 | 112 | 1.6 | 4.8 | 0.00 | 0.00 | 0.00 | 99 | 991.0 |
| 20260506223307 | 8 | 112 | 1.6 | 3.2 | 0.00 | 0.00 | 0.00 | 99 | 991.0 |
| 20260506221339 | 8 | 112 | 1.6 | 3.2 | 0.00 | 0.00 | 0.00 | 99 | 991.0 |
| 20260506221308 | 8 | 112 | 1.6 | 3.2 | 0.00 | 0.00 | 0.00 | 99 | 991.0 |
| 20260506215307 | 8 | 112 | 1.6 | 3.2 | 0.00 | 0.00 | 0.00 | 99 | 991.0 |
| 20260506213308 | 8 | 112 | 0.0 | 3.2 | 0.00 | 0.00 | 0.00 | 99 | 991.0 |
| 20260506211307 | 8 | 112 | 1.6 | 3.2 | 0.00 | 0.00 | 0.00 | 99 | 991.0 |
| 20260506205307 | 8 | 112 | 1.6 | 3.2 | 0.00 | 0.00 | 0.00 | 99 | 991.0 |